Weather in Lukino

Russia / Tambov Oblast     52°14′12″N   42°06′22″E
temp.,
°C
wind,
m/s
gust,
m/s
humid.,
%
clouds,
%
prec.,
mm/h
press.,
hPa
HPBL,
m
27 february, sat
sat2700:00+1w61393100 0.1 1006381
03:000w71594100 0.1 1006396
06:00+1w7139599 0.0 1004636
09:00+1w8149798 0.1 1004722
12:00+1w8149899 0.1 1004759
15:00−1nw9159297 0.5 1005762
18:00−8nnw6118996 0.1 1008626
21:00−9nnw6119198 0.1 1011543
28 february, sun
sun2800:00−10nw4993100 0.0 1012398
03:00−12nw379581 0.0 1014206
06:00−12nw37950 0.0 1015191
09:00−11nw47937 0.0 1015287
12:00−8nw359090 0.0 1016439
15:00−7nw359095 0.1 1016516
18:00−8nw3494100 0.0 101698
21:00−10nnw339579 0.0 101953
1 march, mon
mon100:00−11nne239547 0.0 102031
03:00−12nnw129428 0.0 102121
06:00−12nnw22953 0.0 102221
09:00−10nw229530 0.0 1025101
12:00−7wnw129087 0.0 1025269
15:00−5wnw358994 0.1 1026512
18:00−6w359599 0.0 1025128
21:00−4wsw499499 0.1 1024391
2 march, tue
tue200:00−3wsw61192100 0.0 1022453
03:00−3wsw71394100 0.2 1019454
06:00−2wsw81596100 0.4 1015611
09:00−1w81496100 1.6 1012693
12:000wnw81398100 0.9 1010757
15:00+1nw61192100 1.1 1010807
18:00−2nw6139077 0.1 1010386
21:00−1nw6119581 0.2 1011647
3 march, wed
wed300:00−1nw6129497 0.1 1011611
03:00−3nw6129293 0.2 1012583
06:00−3nw61192100 0.1 1012682
09:00−3nw61090100 0.1 1014749
12:00−2nw71189100 0.1 1015885
15:00−2nw7119193 0.2 1016943
18:00−4nw6129290 0.1 1017429
21:00−3nw5119095 0.2 1019630